,,,PA_Meas_PMT16A,,PR_Meas_QMR101_102,,RH_Meas_QMH101,,SR_Meas_QMS101,,TA_Meas_QMH101,,GenWind,,GenWind,
date,time,status,PA,status,PR,status,RH,status,SR,status,TA,status,DirAvg,status,SpdAvg,
2012-04-06, 00:00:04,VALID,1003.05,VALID,0,VALID,94.0045,VALID,0,VALID,23.2702,VALID,56,VALID,0.265234,
2012-04-06, 00:01:04,VALID,1003.09,VALID,0,VALID,94.0045,VALID,0,VALID,23.2524,VALID,56,VALID,0.2375,
2012-04-06, 00:02:04,VALID,1003.05,VALID,0,VALID,94.0122,VALID,0,VALID,23.2117,VALID,56,VALID,0.313281,
2012-04-06, 00:03:04,VALID,1003.04,VALID,0,VALID,94.0351,VALID,0,VALID,23.2134,VALID,56,VALID,0.394141,
2012-04-06, 00:04:04,VALID,1003.03,VALID,0,VALID,94.0808,VALID,0,VALID,23.1921,VALID,56,VALID,0.389453,
2012-04-06, 00:05:04,VALID,1003.02,VALID,0,VALID,94.1114,VALID,0,VALID,23.2134,VALID,56,VALID,0.181641,
2012-04-06, 00:06:04,VALID,1002.97,VALID,0,VALID,94.119,VALID,0,VALID,23.1726,VALID,56,VALID,0.101563,
2012-04-06, 00:07:04,VALID,1002.92,VALID,0,VALID,94.1419,VALID,0,VALID,23.1531,VALID,56,VALID,0,
2012-04-06, 00:08:04,VALID,1002.89,VALID,0,VALID,94.1571,VALID,0,VALID,23.1549,VALID,56,VALID,0.338672,
2012-04-06, 00:09:04,VALID,1002.9,VALID,0,VALID,94.1953,VALID,0,VALID,23.1549,VALID,56,VALID,0.262891,
2012-04-06, 00:10:04,VALID,1002.86,VALID,0,VALID,94.2563,VALID,0.104696,VALID,23.1141,VALID,56,VALID,0.154687,
2012-04-06, 00:11:04,VALID,1002.87,VALID,0,VALID,94.2487,VALID,0,VALID,23.1354,VALID,56,VALID,0.237891,
2012-04-06, 00:12:04,VALID,1002.89,VALID,0,VALID,94.2792,VALID,0,VALID,23.1354,VALID,56,VALID,0.413281,
2012-04-06, 00:13:04,VALID,1002.87,VALID,0,VALID,94.3555,VALID,0,VALID,23.1159,VALID,56,VALID,0.341016,
2012-04-06, 00:14:04,VALID,1002.87,VALID,0,VALID,94.4242,VALID,0,VALID,23.1159,VALID,56,VALID,0.303125,
2012-04-06, 00:15:04,VALID,1002.87,VALID,0,VALID,94.4089,VALID,0,VALID,23.0946,VALID,56,VALID,0.341797,
2012-04-06, 00:16:04,VALID,1002.86,VALID,0,VALID,94.4547,VALID,0,VALID,23.0769,VALID,56,VALID,0.315234,
2012-04-06, 00:17:04,VALID,1002.83,VALID,0,VALID,94.5081,VALID,0,VALID,23.0769,VALID,56,VALID,0.172266,
2012-04-06, 00:18:04,VALID,1002.86,VALID,0,VALID,94.5005,VALID,0,VALID,23.0573,VALID,56,VALID,0.303906,
2012-04-06, 00:19:04,VALID,1002.82,VALID,0,VALID,94.4928,VALID,0.104696,VALID,23.0361,VALID,56,VALID,0.271484,
2012-04-06, 00:20:04,VALID,1002.82,VALID,0,VALID,94.5386,VALID,0,VALID,23.0361,VALID,56,VALID,0.309766,
2012-04-06, 00:21:04,VALID,1002.79,VALID,0,VALID,94.5768,VALID,0.104696,VALID,23.0361,VALID,56,VALID,0.277344,
2012-04-06, 00:22:04,VALID,1002.76,VALID,0,VALID,94.6149,VALID,0,VALID,23.0361,VALID,56,VALID,0.190625,
2012-04-06, 00:23:04,VALID,1002.78,VALID,0,VALID,94.6454,VALID,0,VALID,23.0166,VALID,56,VALID,0,
2012-04-06, 00:24:04,VALID,1002.77,VALID,0,VALID,94.676,VALID,0,VALID,23.0378,VALID,56,VALID,0,
2012-04-06, 00:25:04,VALID,1002.73,VALID,0,VALID,94.6912,VALID,0,VALID,22.9971,VALID,56,VALID,0,
2012-04-06, 00:26:04,VALID,1002.74,VALID,0,VALID,94.7065,VALID,0,VALID,22.9758,VALID,56,VALID,0.0246094,
2012-04-06, 00:27:04,VALID,1002.71,VALID,0,VALID,94.7141,VALID,0,VALID,22.9971,VALID,56,VALID,0.772266,
2012-04-06, 00:28:04,VALID,1002.7,VALID,0,VALID,94.7217,VALID,0,VALID,22.9988,VALID,56,VALID,0.967578,
2012-04-06, 00:29:04,VALID,1002.7,VALID,0,VALID,94.7141,VALID,0,VALID,22.9988,VALID,56,VALID,0.840234,
2012-04-06, 00:30:04,VALID,1002.68,VALID,0,VALID,94.7446,VALID,0,VALID,22.9988,VALID,56,VALID,0.657812,
2012-04-06, 00:31:04,VALID,1002.69,VALID,0,VALID,94.6988,VALID,0,VALID,23.0006,VALID,56,VALID,0.607031,
2012-04-06, 00:32:04,VALID,1002.63,VALID,0,VALID,94.7065,VALID,0,VALID,22.9598,VALID,56,VALID,0.649219,
2012-04-06, 00:33:04,VALID,1002.62,VALID,0,VALID,94.6912,VALID,0,VALID,22.9598,VALID,56,VALID,0.673437,
2012-04-06, 00:34:04,VALID,1002.61,VALID,0,VALID,94.7141,VALID,0,VALID,22.9598,VALID,56,VALID,0.724609,
2012-04-06, 00:35:04,VALID,1002.58,VALID,0,VALID,94.7523,VALID,0,VALID,22.9598,VALID,56,VALID,0.827344,
2012-04-06, 00:36:04,VALID,1002.61,VALID,0,VALID,94.8057,VALID,0,VALID,22.9581,VALID,56,VALID,0.889844,
2012-04-06, 00:37:04,VALID,1002.58,VALID,0,VALID,94.8133,VALID,0,VALID,22.9793,VALID,57,VALID,0.941406,
2012-04-06, 00:38:04,VALID,1002.59,VALID,0,VALID,94.798,VALID,0,VALID,22.9385,VALID,57,VALID,0.958984,
2012-04-06, 00:39:04,VALID,1002.57,VALID,0,VALID,94.8209,VALID,0,VALID,22.9793,VALID,57,VALID,0.863672,
2012-04-06, 00:40:04,VALID,1002.56,VALID,0,VALID,94.8209,VALID,0,VALID,22.9581,VALID,57,VALID,0.723437,
2012-04-06, 00:41:04,VALID,1002.55,VALID,0,VALID,94.8362,VALID,0,VALID,22.9385,VALID,57,VALID,0.754297,
2012-04-06, 00:42:04,VALID,1002.53,VALID,0,VALID,94.8362,VALID,0,VALID,22.9385,VALID,57,VALID,0.606641,
2012-04-06, 00:43:04,VALID,1002.53,VALID,0,VALID,94.8438,VALID,0,VALID,22.9598,VALID,57,VALID,0.6875,
2012-04-06, 00:44:04,VALID,1002.5,VALID,0,VALID,94.8667,VALID,0,VALID,22.9581,VALID,57,VALID,0.434375,
2012-04-06, 00:45:04,VALID,1002.51,VALID,0,VALID,94.8438,VALID,0,VALID,22.9793,VALID,57,VALID,0.0316406,
2012-04-06, 00:46:04,VALID,1002.53,VALID,0,VALID,94.8285,VALID,0,VALID,22.9598,VALID,57,VALID,0.142578,
2012-04-06, 00:47:04,VALID,1002.52,VALID,0,VALID,94.8438,VALID,0,VALID,22.9598,VALID,57,VALID,0.0109375,
2012-04-06, 00:48:04,VALID,1002.52,VALID,0,VALID,94.8133,VALID,0,VALID,22.9598,VALID,57,VALID,0.460547,
2012-04-06, 00:49:04,VALID,1002.52,VALID,0,VALID,94.8285,VALID,0,VALID,22.9598,VALID,15,VALID,0.776953,
2012-04-06, 00:50:04,VALID,1002.52,VALID,0,VALID,94.8514,VALID,0,VALID,22.9598,VALID,1,VALID,0.782422,
2012-04-06, 00:51:04,VALID,1002.52,VALID,0,VALID,94.8133,VALID,0,VALID,22.9208,VALID,356,VALID,0.941016,
2012-04-06, 00:52:04,VALID,1002.49,VALID,0,VALID,94.8133,VALID,0,VALID,22.9013,VALID,354,VALID,0.908594,
2012-04-06, 00:53:04,VALID,1002.5,VALID,0,VALID,94.7751,VALID,0,VALID,22.8605,VALID,354,VALID,0.855469,
2012-04-06, 00:54:04,VALID,1002.46,VALID,0,VALID,94.7751,VALID,0,VALID,22.8605,VALID,354,VALID,0.744141,
2012-04-06, 00:55:04,VALID,1002.44,VALID,0,VALID,94.7446,VALID,0,VALID,22.8623,VALID,354,VALID,0.753516,
2012-04-06, 00:56:04,VALID,1002.41,VALID,0,VALID,94.7217,VALID,0,VALID,22.8427,VALID,354,VALID,0.782031,
2012-04-06, 00:57:04,VALID,1002.4,VALID,0,VALID,94.7065,VALID,0,VALID,22.8232,VALID,354,VALID,0.849219,
2012-04-06, 00:58:04,VALID,1002.37,VALID,0,VALID,94.6149,VALID,0,VALID,22.7842,VALID,6,VALID,1.0957,
2012-04-06, 00:59:04,VALID,1002.33,VALID,0,VALID,94.5462,VALID,0,VALID,22.7452,VALID,12,VALID,0.946875,
2012-04-06, 01:00:04,VALID,1002.34,VALID,0,VALID,94.4471,VALID,0,VALID,22.6867,VALID,12,VALID,0.958203,
2012-04-06, 01:01:04,VALID,1002.31,VALID,0,VALID,94.3326,VALID,0,VALID,22.6264,VALID,12,VALID,0.780078,
2012-04-06, 01:02:04,VALID,1002.31,VALID,0,VALID,94.2945,VALID,0,VALID,22.6087,VALID,12,VALID,0.783594,
2012-04-06, 01:03:04,VALID,1002.28,VALID,0,VALID,94.2716,VALID,0,VALID,22.5892,VALID,12,VALID,0.619922,
2012-04-06, 01:04:04,VALID,1002.27,VALID,0,VALID,94.2411,VALID,0,VALID,22.5696,VALID,12,VALID,0.514844,
2012-04-06, 01:05:04,VALID,1002.26,VALID,0,VALID,94.2868,VALID,0,VALID,22.5501,VALID,12,VALID,0.611328,
2012-04-06, 01:06:04,VALID,1002.24,VALID,0,VALID,94.2945,VALID,0,VALID,22.5501,VALID,12,VALID,0.561719,
2012-04-06, 01:07:04,VALID,1002.22,VALID,0,VALID,94.325,VALID,0,VALID,22.5306,VALID,12,VALID,0.61875,
2012-04-06, 01:08:04,VALID,1002.2,VALID,0,VALID,94.3631,VALID,0,VALID,22.5306,VALID,12,VALID,0.724219,
2012-04-06, 01:09:04,VALID,1002.17,VALID,0,VALID,94.3937,VALID,0,VALID,22.5306,VALID,48,VALID,0.408594,
2012-04-06, 01:10:04,VALID,1002.15,VALID,0,VALID,94.3784,VALID,0,VALID,22.5111,VALID,48,VALID,0.456641,
2012-04-06, 01:11:04,VALID,1002.14,VALID,0,VALID,94.386,VALID,0,VALID,22.5111,VALID,48,VALID,0.304688,
2012-04-06, 01:12:04,VALID,1002.09,VALID,0,VALID,94.4165,VALID,0,VALID,22.4916,VALID,48,VALID,0.309375,
2012-04-06, 01:13:04,VALID,1002.02,VALID,0,VALID,94.4165,VALID,0,VALID,22.4916,VALID,48,VALID,0.176953,
2012-04-06, 01:14:04,VALID,1002.02,VALID,0,VALID,94.4318,VALID,0,VALID,22.4916,VALID,48,VALID,0.207813,
2012-04-06, 01:15:04,VALID,1002.02,VALID,0,VALID,94.4471,VALID,0,VALID,22.4916,VALID,48,VALID,0.283594,
2012-04-06, 01:16:04,VALID,1001.97,VALID,0,VALID,94.5081,VALID,0,VALID,22.4916,VALID,48,VALID,0.2375,
2012-04-06, 01:17:04,VALID,1001.95,VALID,0,VALID,94.5157,VALID,0,VALID,22.4916,VALID,48,VALID,0.241406,
2012-04-06, 01:18:04,VALID,1001.94,VALID,0,VALID,94.5768,VALID,0,VALID,22.4916,VALID,48,VALID,0.0828125,
2012-04-06, 01:19:04,VALID,1001.92,VALID,0,VALID,94.6226,VALID,0,VALID,22.4704,VALID,48,VALID,0,
2012-04-06, 01:20:04,VALID,1001.87,VALID,0,VALID,94.676,VALID,0,VALID,22.5094,VALID,48,VALID,0,
2012-04-06, 01:21:04,VALID,1001.86,VALID,0,VALID,94.737,VALID,0,VALID,22.5323,VALID,48,VALID,0,
2012-04-06, 01:22:04,VALID,1001.82,VALID,0,VALID,94.7828,VALID,0,VALID,22.5501,VALID,48,VALID,0,
2012-04-06, 01:23:04,VALID,1001.78,VALID,0,VALID,94.8591,VALID,0,VALID,22.5909,VALID,48,VALID,0,
2012-04-06, 01:24:04,VALID,1001.81,VALID,0,VALID,94.9125,VALID,0,VALID,22.5892,VALID,67,VALID,0,
2012-04-06, 01:25:04,VALID,1001.77,VALID,0,VALID,94.9125,VALID,0,VALID,22.6282,VALID,90,VALID,0,
2012-04-06, 01:26:04,VALID,1001.74,VALID,0,VALID,94.9354,VALID,0,VALID,22.6477,VALID,117,VALID,0,
2012-04-06, 01:27:04,VALID,1001.77,VALID,0,VALID,94.943,VALID,0,VALID,22.6477,VALID,117,VALID,1.07148,
2012-04-06, 01:28:04,VALID,1001.77,VALID,0,VALID,94.9506,VALID,0,VALID,22.6884,VALID,117,VALID,0.873438,
2012-04-06, 01:29:04,VALID,1001.73,VALID,0,VALID,94.943,VALID,0,VALID,22.6689,VALID,117,VALID,0.816797,
2012-04-06, 01:30:04,VALID,1001.72,VALID,0,VALID,94.8972,VALID,0,VALID,22.6672,VALID,116,VALID,0.771875,
2012-04-06, 01:31:04,VALID,1001.71,VALID,0,VALID,94.9201,VALID,0,VALID,22.6884,VALID,93,VALID,0.926172,
2012-04-06, 01:32:04,VALID,1001.7,VALID,0,VALID,94.9125,VALID,0,VALID,22.6672,VALID,82,VALID,0.899609,
2012-04-06, 01:33:04,VALID,1001.71,VALID,0,VALID,94.9201,VALID,0,VALID,22.7079,VALID,78,VALID,1.03867,
2012-04-06, 01:34:04,VALID,1001.68,VALID,0,VALID,94.9277,VALID,0,VALID,22.6884,VALID,78,VALID,0.732422,
2012-04-06, 01:35:04,VALID,1001.69,VALID,0,VALID,94.9277,VALID,0,VALID,22.6884,VALID,78,VALID,0.699609,
2012-04-06, 01:36:04,VALID,1001.67,VALID,0,VALID,94.8514,VALID,0,VALID,22.6477,VALID,77,VALID,0.746875,
2012-04-06, 01:37:04,VALID,1001.67,VALID,0,VALID,94.798,VALID,0.104696,VALID,22.5874,VALID,25,VALID,0.769922,
2012-04-06, 01:38:04,VALID,1001.68,VALID,0,VALID,94.7065,VALID,0,VALID,22.5289,VALID,33,VALID,0.854297,
2012-04-06, 01:39:04,VALID,1001.68,VALID,0,VALID,94.6836,VALID,0,VALID,22.5094,VALID,44,VALID,0.999219,
2012-04-06, 01:40:04,VALID,1001.66,VALID,0,VALID,94.7065,VALID,0,VALID,22.4899,VALID,47,VALID,0.955078,
2012-04-06, 01:41:04,VALID,1001.67,VALID,0,VALID,94.7675,VALID,0,VALID,22.5111,VALID,48,VALID,0.972656,
2012-04-06, 01:42:04,VALID,1001.67,VALID,0,VALID,94.8285,VALID,0,VALID,22.5094,VALID,48,VALID,0.776953,
2012-04-06, 01:43:04,VALID,1001.67,VALID,0,VALID,94.8285,VALID,0,VALID,22.5094,VALID,48,VALID,0.724609,
2012-04-06, 01:44:04,VALID,1001.64,VALID,0,VALID,94.882,VALID,0,VALID,22.5306,VALID,48,VALID,0.612109,
2012-04-06, 01:45:04,VALID,1001.64,VALID,0,VALID,94.8591,VALID,0,VALID,22.5501,VALID,48,VALID,0.627734,
2012-04-06, 01:46:04,VALID,1001.63,VALID,0,VALID,94.882,VALID,0,VALID,22.5289,VALID,48,VALID,0.608984,
2012-04-06, 01:47:04,VALID,1001.6,VALID,0,VALID,94.8896,VALID,0,VALID,22.5289,VALID,34,VALID,0.748828,
2012-04-06, 01:48:04,VALID,1001.59,VALID,0,VALID,94.9048,VALID,0,VALID,22.5094,VALID,34,VALID,0.691406,
2012-04-06, 01:49:04,VALID,1001.58,VALID,0,VALID,94.8972,VALID,0,VALID,22.5094,VALID,34,VALID,0.678516,
2012-04-06, 01:50:04,VALID,1001.59,VALID,0,VALID,94.9048,VALID,0.104696,VALID,22.5094,VALID,34,VALID,0.713672,
2012-04-06, 01:51:04,VALID,1001.54,VALID,0,VALID,94.8972,VALID,0,VALID,22.5111,VALID,34,VALID,0.666016,
2012-04-06, 01:52:04,VALID,1001.51,VALID,0,VALID,94.882,VALID,0,VALID,22.4899,VALID,34,VALID,0.639844,
2012-04-06, 01:53:04,VALID,1001.51,VALID,0,VALID,94.8591,VALID,0,VALID,22.4704,VALID,34,VALID,0.641016,
2012-04-06, 01:54:04,VALID,1001.51,VALID,0,VALID,94.798,VALID,0,VALID,22.4526,VALID,34,VALID,0.664844,
2012-04-06, 01:55:04,VALID,1001.51,VALID,0,VALID,94.7675,VALID,0,VALID,22.4314,VALID,34,VALID,0.666406,
2012-04-06, 01:56:04,VALID,1001.45,VALID,0,VALID,94.7294,VALID,0,VALID,22.4119,VALID,34,VALID,0.459375,
2012-04-06, 01:57:04,VALID,1001.46,VALID,0,VALID,94.7141,VALID,0.104696,VALID,22.4119,VALID,34,VALID,0.364453,
2012-04-06, 01:58:04,VALID,1001.45,VALID,0,VALID,94.6912,VALID,0.104696,VALID,22.3924,VALID,34,VALID,0.337109,
2012-04-06, 01:59:04,VALID,1001.43,VALID,0,VALID,94.6683,VALID,0,VALID,22.3729,VALID,34,VALID,0.437891,
2012-04-06, 02:00:04,VALID,1001.42,VALID,0,VALID,94.676,VALID,0,VALID,22.3924,VALID,34,VALID,0.384375,
2012-04-06, 02:01:04,VALID,1001.42,VALID,0,VALID,94.6378,VALID,0,VALID,22.4136,VALID,34,VALID,0.303906,
2012-04-06, 02:02:04,VALID,1001.41,VALID,0,VALID,94.6378,VALID,0,VALID,22.3941,VALID,34,VALID,0.433594,
2012-04-06, 02:03:04,VALID,1001.37,VALID,0,VALID,94.6607,VALID,0,VALID,22.3924,VALID,34,VALID,0.450391,
2012-04-06, 02:04:04,VALID,1001.38,VALID,0,VALID,94.6607,VALID,0.104696,VALID,22.3924,VALID,34,VALID,0.593359,
2012-04-06, 02:05:04,VALID,1001.37,VALID,0,VALID,94.6683,VALID,0,VALID,22.4119,VALID,34,VALID,0.438672,
2012-04-06, 02:06:04,VALID,1001.35,VALID,0,VALID,94.6531,VALID,0,VALID,22.4314,VALID,34,VALID,0.440625,
2012-04-06, 02:07:04,VALID,1001.34,VALID,0,VALID,94.592,VALID,0.104696,VALID,22.4331,VALID,34,VALID,0.31875,
2012-04-06, 02:08:04,VALID,1001.38,VALID,0,VALID,94.5157,VALID,0,VALID,22.4136,VALID,34,VALID,0.188281,
2012-04-06, 02:09:04,VALID,1001.38,VALID,0,VALID,94.47,VALID,0,VALID,22.3729,VALID,34,VALID,0.173438,
2012-04-06, 02:10:04,VALID,1001.35,VALID,0,VALID,94.4394,VALID,0,VALID,22.3746,VALID,34,VALID,0,
2012-04-06, 02:11:04,VALID,1001.34,VALID,0,VALID,94.4013,VALID,0,VALID,22.3339,VALID,34,VALID,0,
2012-04-06, 02:12:04,VALID,1001.33,VALID,0,VALID,94.4089,VALID,0,VALID,22.3144,VALID,34,VALID,0,
2012-04-06, 02:13:04,VALID,1001.34,VALID,0,VALID,94.4547,VALID,0.104696,VALID,22.3144,VALID,34,VALID,0,
2012-04-06, 02:14:04,VALID,1001.34,VALID,0,VALID,94.4776,VALID,0.104696,VALID,22.2949,VALID,34,VALID,0,
2012-04-06, 02:15:04,VALID,1001.35,VALID,0,VALID,94.5234,VALID,0,VALID,22.3161,VALID,34,VALID,0,
2012-04-06, 02:16:04,VALID,1001.33,VALID,0,VALID,94.531,VALID,0,VALID,22.2754,VALID,34,VALID,0,
2012-04-06, 02:17:04,VALID,1001.34,VALID,0,VALID,94.5539,VALID,0,VALID,22.2966,VALID,34,VALID,0,
2012-04-06, 02:18:04,VALID,1001.34,VALID,0,VALID,94.531,VALID,0,VALID,22.2559,VALID,34,VALID,0,
2012-04-06, 02:19:04,VALID,1001.37,VALID,0,VALID,94.5234,VALID,0,VALID,22.2576,VALID,34,VALID,0,
2012-04-06, 02:20:04,VALID,1001.37,VALID,0,VALID,94.5462,VALID,0,VALID,22.2576,VALID,34,VALID,0,
2012-04-06, 02:21:04,VALID,1001.34,VALID,0,VALID,94.592,VALID,0,VALID,22.2364,VALID,34,VALID,0,
2012-04-06, 02:22:04,VALID,1001.34,VALID,0,VALID,94.6607,VALID,0,VALID,22.2364,VALID,34,VALID,0,
2012-04-06, 02:23:04,VALID,1001.34,VALID,0,VALID,94.7065,VALID,0,VALID,22.2364,VALID,34,VALID,0,
2012-04-06, 02:24:04,VALID,1001.35,VALID,0,VALID,94.7217,VALID,0.104696,VALID,22.2771,VALID,34,VALID,0,
2012-04-06, 02:25:04,VALID,1001.33,VALID,0,VALID,94.737,VALID,0,VALID,22.2576,VALID,34,VALID,0,
2012-04-06, 02:26:04,VALID,1001.33,VALID,0,VALID,94.7828,VALID,0,VALID,22.2364,VALID,34,VALID,0,
2012-04-06, 02:27:04,VALID,1001.33,VALID,0,VALID,94.8133,VALID,0,VALID,22.2559,VALID,34,VALID,0,
2012-04-06, 02:28:04,VALID,1001.31,VALID,0,VALID,94.8209,VALID,0,VALID,22.2559,VALID,34,VALID,0,
2012-04-06, 02:29:04,VALID,1001.3,VALID,0,VALID,94.8591,VALID,0,VALID,22.2771,VALID,34,VALID,0,
2012-04-06, 02:30:04,VALID,1001.34,VALID,0,VALID,94.882,VALID,0,VALID,22.3161,VALID,34,VALID,0,
2012-04-06, 02:31:04,VALID,1001.34,VALID,0,VALID,94.882,VALID,0,VALID,22.2966,VALID,34,VALID,0,
2012-04-06, 02:32:04,VALID,1001.33,VALID,0,VALID,94.8972,VALID,0,VALID,22.2949,VALID,34,VALID,0,
2012-04-06, 02:33:04,VALID,1001.37,VALID,0,VALID,94.9048,VALID,0,VALID,22.2949,VALID,34,VALID,0.478906,
2012-04-06, 02:34:04,VALID,1001.39,VALID,0,VALID,94.9125,VALID,0,VALID,22.3161,VALID,145,VALID,0.537891,
2012-04-06, 02:35:04,VALID,1001.39,VALID,0,VALID,94.9201,VALID,0,VALID,22.3144,VALID,145,VALID,0.603516,
2012-04-06, 02:36:04,VALID,1001.42,VALID,0,VALID,94.9583,VALID,0,VALID,22.3568,VALID,145,VALID,0.505859,
2012-04-06, 02:37:04,VALID,1001.4,VALID,0,VALID,94.9811,VALID,0,VALID,22.3551,VALID,145,VALID,0.369922,
2012-04-06, 02:38:04,VALID,1001.38,VALID,0,VALID,94.9659,VALID,0,VALID,22.3746,VALID,145,VALID,0.0570313,
2012-04-06, 02:39:04,VALID,1001.4,VALID,0,VALID,94.943,VALID,0,VALID,22.3746,VALID,145,VALID,0,
2012-04-06, 02:40:04,VALID,1001.37,VALID,0,VALID,94.9201,VALID,0,VALID,22.3763,VALID,145,VALID,0,
2012-04-06, 02:41:04,VALID,1001.37,VALID,0,VALID,94.8591,VALID,0,VALID,22.3568,VALID,145,VALID,0,
2012-04-06, 02:42:04,VALID,1001.37,VALID,0,VALID,94.8057,VALID,0,VALID,22.3161,VALID,145,VALID,0,
2012-04-06, 02:43:04,VALID,1001.38,VALID,0,VALID,94.7828,VALID,0,VALID,22.2983,VALID,145,VALID,0,
2012-04-06, 02:44:04,VALID,1001.35,VALID,0,VALID,94.7828,VALID,0,VALID,22.2788,VALID,145,VALID,0,
2012-04-06, 02:45:04,VALID,1001.34,VALID,0,VALID,94.7523,VALID,0,VALID,22.2592,VALID,145,VALID,0,
2012-04-06, 02:46:04,VALID,1001.32,VALID,0,VALID,94.7675,VALID,0,VALID,22.2186,VALID,145,VALID,0,
2012-04-06, 02:47:04,VALID,1001.28,VALID,0,VALID,94.7599,VALID,0,VALID,22.199,VALID,145,VALID,0.444141,
2012-04-06, 02:48:04,VALID,1001.26,VALID,0,VALID,94.7904,VALID,0,VALID,22.199,VALID,145,VALID,0.874219,
2012-04-06, 02:49:04,VALID,1001.24,VALID,0,VALID,94.882,VALID,0,VALID,22.2186,VALID,145,VALID,0.892578,
2012-04-06, 02:50:04,VALID,1001.24,VALID,0,VALID,94.9735,VALID,0,VALID,22.2771,VALID,145,VALID,0.830078,
2012-04-06, 02:51:04,VALID,1001.23,VALID,0,VALID,95.0117,VALID,0,VALID,22.2983,VALID,145,VALID,0.756641,
2012-04-06, 02:52:04,VALID,1001.24,VALID,0,VALID,95.0574,VALID,0,VALID,22.3161,VALID,145,VALID,0.578516,
2012-04-06, 02:53:04,VALID,1001.24,VALID,0,VALID,95.0956,VALID,0,VALID,22.3551,VALID,145,VALID,0.655859,
2012-04-06, 02:54:04,VALID,1001.22,VALID,0,VALID,95.1032,VALID,0,VALID,22.3551,VALID,145,VALID,0.370703,
2012-04-06, 02:55:04,VALID,1001.26,VALID,0,VALID,95.088,VALID,0,VALID,22.3763,VALID,135,VALID,0.755469,
2012-04-06, 02:56:04,VALID,1001.24,VALID,0,VALID,95.0803,VALID,0,VALID,22.3551,VALID,108,VALID,0.746484,
2012-04-06, 02:57:04,VALID,1001.26,VALID,0,VALID,95.0498,VALID,0,VALID,22.3356,VALID,105,VALID,0.833594,
2012-04-06, 02:58:04,VALID,1001.27,VALID,0,VALID,95.0117,VALID,0,VALID,22.3568,VALID,104,VALID,0.904688,
2012-04-06, 02:59:04,VALID,1001.3,VALID,0,VALID,95.004,VALID,0,VALID,22.3161,VALID,86,VALID,0.886719,
2012-04-06, 03:00:04,VALID,1001.27,VALID,0,VALID,94.9506,VALID,0,VALID,22.2771,VALID,62,VALID,1.17656,
2012-04-06, 03:01:04,VALID,1001.29,VALID,0,VALID,94.9125,VALID,0,VALID,22.2381,VALID,62,VALID,1.19375,
2012-04-06, 03:02:04,VALID,1001.3,VALID,0,VALID,94.9354,VALID,0,VALID,22.2397,VALID,62,VALID,0.978906,
2012-04-06, 03:03:04,VALID,1001.32,VALID,0,VALID,94.9583,VALID,0,VALID,22.2202,VALID,62,VALID,0.714844,
2012-04-06, 03:04:04,VALID,1001.3,VALID,0,VALID,94.9506,VALID,0,VALID,22.1795,VALID,62,VALID,0.479688,
2012-04-06, 03:05:04,VALID,1001.29,VALID,0,VALID,94.9506,VALID,0,VALID,22.16,VALID,62,VALID,0.285937,
2012-04-06, 03:06:04,VALID,1001.33,VALID,0,VALID,94.9354,VALID,0,VALID,22.1405,VALID,62,VALID,0.139062,
2012-04-06, 03:07:04,VALID,1001.33,VALID,0,VALID,94.9201,VALID,0.104696,VALID,22.121,VALID,62,VALID,0,
2012-04-06, 03:08:04,VALID,1001.33,VALID,0,VALID,94.882,VALID,0,VALID,22.082,VALID,62,VALID,0,
2012-04-06, 03:09:04,VALID,1001.31,VALID,0,VALID,94.8667,VALID,0,VALID,22.0413,VALID,62,VALID,0.145703,
2012-04-06, 03:10:04,VALID,1001.29,VALID,0,VALID,94.9048,VALID,0,VALID,22.0023,VALID,62,VALID,0.470313,
2012-04-06, 03:11:04,VALID,1001.31,VALID,0,VALID,94.8896,VALID,0,VALID,22.0235,VALID,62,VALID,0.448828,
2012-04-06, 03:12:04,VALID,1001.3,VALID,0,VALID,94.9583,VALID,0.104696,VALID,22.0235,VALID,62,VALID,0.534766,
2012-04-06, 03:13:04,VALID,1001.29,VALID,0,VALID,94.9888,VALID,0,VALID,22.0023,VALID,62,VALID,0.634766,
2012-04-06, 03:14:04,VALID,1001.3,VALID,0,VALID,95.0651,VALID,0,VALID,22.0235,VALID,62,VALID,0.606641,
2012-04-06, 03:15:04,VALID,1001.3,VALID,0,VALID,95.0956,VALID,0,VALID,22.0235,VALID,62,VALID,0.633984,
2012-04-06, 03:16:04,VALID,1001.29,VALID,0,VALID,95.1108,VALID,0,VALID,22.0218,VALID,62,VALID,0.638281,
2012-04-06, 03:17:04,VALID,1001.29,VALID,0,VALID,95.1337,VALID,0,VALID,22.0625,VALID,62,VALID,0.539844,
2012-04-06, 03:18:04,VALID,1001.23,VALID,0,VALID,95.1414,VALID,0,VALID,22.043,VALID,62,VALID,0.510156,
2012-04-06, 03:19:04,VALID,1001.22,VALID,0,VALID,95.1337,VALID,0,VALID,22.043,VALID,62,VALID,0.516797,
2012-04-06, 03:20:04,VALID,1001.23,VALID,0,VALID,95.1566,VALID,0.104696,VALID,22.0413,VALID,62,VALID,0.485547,
2012-04-06, 03:21:04,VALID,1001.21,VALID,0,VALID,95.1108,VALID,0,VALID,22.0057,VALID,62,VALID,0.525391,
2012-04-06, 03:22:04,VALID,1001.22,VALID,0,VALID,95.1261,VALID,0,VALID,21.9845,VALID,62,VALID,0.546875,
2012-04-06, 03:23:04,VALID,1001.21,VALID,0,VALID,95.1337,VALID,0,VALID,22.0057,VALID,62,VALID,0.711719,
2012-04-06, 03:24:04,VALID,1001.22,VALID,0,VALID,95.1337,VALID,0,VALID,21.9862,VALID,62,VALID,0.763281,
2012-04-06, 03:25:04,VALID,1001.2,VALID,0,VALID,95.1337,VALID,0,VALID,21.9455,VALID,62,VALID,0.737891,
2012-04-06, 03:26:04,VALID,1001.19,VALID,0,VALID,95.0956,VALID,0,VALID,21.9277,VALID,62,VALID,0.644531,
2012-04-06, 03:27:04,VALID,1001.25,VALID,0,VALID,95.088,VALID,0,VALID,21.9065,VALID,62,VALID,0.596094,
2012-04-06, 03:28:04,VALID,1001.27,VALID,0,VALID,95.1032,VALID,0,VALID,21.8658,VALID,62,VALID,0.609766,
2012-04-06, 03:29:04,VALID,1001.26,VALID,0,VALID,95.1337,VALID,0,VALID,21.887,VALID,62,VALID,0.594531,
2012-04-06, 03:30:04,VALID,1001.26,VALID,0,VALID,95.1643,VALID,0,VALID,21.887,VALID,62,VALID,0.669141,
2012-04-06, 03:31:04,VALID,1001.31,VALID,0,VALID,95.1948,VALID,0,VALID,21.887,VALID,62,VALID,0.623047,
2012-04-06, 03:32:04,VALID,1001.31,VALID,0,VALID,95.2177,VALID,0.104696,VALID,21.9065,VALID,62,VALID,0.503516,
2012-04-06, 03:33:04,VALID,1001.31,VALID,0,VALID,95.2024,VALID,0,VALID,21.9065,VALID,62,VALID,0.460547,
2012-04-06, 03:34:04,VALID,1001.32,VALID,0,VALID,95.2253,VALID,0,VALID,21.887,VALID,62,VALID,0.365625,
2012-04-06, 03:35:04,VALID,1001.32,VALID,0,VALID,95.2405,VALID,0,VALID,21.8853,VALID,62,VALID,0.33125,
2012-04-06, 03:36:04,VALID,1001.31,VALID,0,VALID,95.2482,VALID,0,VALID,21.887,VALID,62,VALID,0.170312,
2012-04-06, 03:37:04,VALID,1001.33,VALID,0,VALID,95.2253,VALID,0,VALID,21.8675,VALID,62,VALID,0.0140625,
2012-04-06, 03:38:04,VALID,1001.31,VALID,0,VALID,95.2177,VALID,0.104696,VALID,21.8675,VALID,62,VALID,0,
2012-04-06, 03:39:04,VALID,1001.28,VALID,0,VALID,95.2177,VALID,0,VALID,21.848,VALID,62,VALID,0.455078,
2012-04-06, 03:40:04,VALID,1001.29,VALID,0,VALID,95.21,VALID,0,VALID,21.8496,VALID,62,VALID,0.473437,
2012-04-06, 03:41:04,VALID,1001.29,VALID,0,VALID,95.2177,VALID,0,VALID,21.8285,VALID,62,VALID,0.562109,
2012-04-06, 03:42:04,VALID,1001.28,VALID,0,VALID,95.21,VALID,0,VALID,21.8285,VALID,87,VALID,0.710547,
2012-04-06, 03:43:04,VALID,1001.28,VALID,0,VALID,95.2329,VALID,0,VALID,21.8285,VALID,110,VALID,0.734375,
2012-04-06, 03:44:04,VALID,1001.27,VALID,0,VALID,95.2634,VALID,0,VALID,21.848,VALID,115,VALID,0.751562,
2012-04-06, 03:45:04,VALID,1001.25,VALID,0,VALID,95.2863,VALID,0,VALID,21.8675,VALID,115,VALID,0.791016,
2012-04-06, 03:46:04,VALID,1001.28,VALID,0,VALID,95.294,VALID,0,VALID,21.8675,VALID,116,VALID,0.738672,
2012-04-06, 03:47:04,VALID,1001.25,VALID,0,VALID,95.3016,VALID,0,VALID,21.9065,VALID,129,VALID,0.671875,
2012-04-06, 03:48:04,VALID,1001.26,VALID,0,VALID,95.3321,VALID,0,VALID,21.926,VALID,133,VALID,0.689062,